| time (UTC) | temp F | wind direction | speed knots | gust knots | rain 1hr in | rain 24hr in | rain mn in | humidity % | barometer mb |
| 20260902120548 | 56 | 147 | 0.9 | 10.4 | 0.00 | 0.00 | 0.00 | 78 | 1008.9 |
| 20260902120047 | 55 | 148 | 4.3 | 10.4 | 0.00 | 0.00 | 0.00 | 83 | 1009.0 |
| 20260902115547 | 54 | 118 | 0.0 | 3.5 | 0.00 | 0.00 | 0.00 | 81 | 1009.0 |
| 20260902115047 | 54 | 130 | 0.0 | 2.6 | 0.00 | 0.00 | 0.00 | 81 | 1009.1 |
| 20260902114548 | 54 | 130 | 0.0 | 2.6 | 0.00 | 0.00 | 0.00 | 82 | 1009.1 |
| 20260902114049 | 53 | 130 | 0.0 | 1.7 | 0.00 | 0.00 | 0.00 | 82 | 1009.0 |
| 20260902113547 | 53 | 130 | 0.0 | 1.7 | 0.00 | 0.00 | 0.00 | 82 | 1009.0 |
| 20260902113102 | 53 | 130 | 0.0 | 1.7 | 0.00 | 0.00 | 0.00 | 80 | 1009.1 |
| 20260902112548 | 54 | 130 | 0.0 | 0.9 | 0.00 | 0.00 | 0.00 | 79 | 1009.0 |
| 20260902111551 | 55 | 130 | 0.0 | 2.6 | 0.00 | 0.00 | 0.00 | 77 | 1009.0 |
| 20260902111042 | 56 | 132 | 0.0 | 2.6 | 0.00 | 0.00 | 0.00 | 77 | 1008.9 |
| 20260902110542 | 56 | 132 | 0.0 | 0.0 | 0.00 | 0.00 | 0.00 | 78 | 1009.0 |
| 20260902110042 | 56 | 132 | 0.0 | 0.0 | 0.00 | 0.00 | 0.00 | 78 | 1009.0 |
| 20260902105545 | 56 | 132 | 0.0 | 0.0 | 0.00 | 0.00 | 0.00 | 78 | 1009.0 |
| 20260902105042 | 56 | 132 | 0.0 | 0.0 | 0.00 | 0.00 | 0.00 | 78 | 1009.1 |
| 20260902104544 | 56 | 132 | 0.0 | 0.0 | 0.00 | 0.00 | 0.00 | 78 | 1009.2 |
| 20260902104041 | 56 | 132 | 0.0 | 0.0 | 0.00 | 0.00 | 0.00 | 76 | 1008.9 |
| 20260902103542 | 57 | 132 | 0.0 | 0.0 | 0.00 | 0.00 | 0.00 | 76 | 1008.9 |
| 20260902103042 | 57 | 132 | 0.0 | 0.9 | 0.00 | 0.00 | 0.00 | 76 | 1008.9 |
| 20260902102540 | 57 | 132 | 0.0 | 2.6 | 0.00 | 0.00 | 0.00 | 75 | 1009.0 |
| 20260902101541 | 58 | 132 | 2.6 | 6.1 | 0.00 | 0.00 | 0.00 | 75 | 1009.2 |
| 20260902101035 | 58 | 134 | 3.5 | 7.8 | 0.00 | 0.00 | 0.00 | 76 | 1009.4 |
| 20260902100535 | 57 | 139 | 2.6 | 7.0 | 0.00 | 0.00 | 0.00 | 77 | 1009.4 |
| 20260902100035 | 57 | 150 | 2.6 | 5.2 | 0.00 | 0.00 | 0.00 | 78 | 1009.3 |
| 20260902095535 | 56 | 181 | 1.7 | 3.5 | 0.00 | 0.00 | 0.00 | 78 | 1009.4 |
| 20260902095034 | 56 | 182 | 0.0 | 0.0 | 0.00 | 0.00 | 0.00 | 78 | 1009.4 |
| 20260902094540 | 56 | 182 | 0.0 | 0.0 | 0.00 | 0.00 | 0.00 | 78 | 1009.6 |
| 20260902094033 | 56 | 182 | 0.0 | 0.0 | 0.00 | 0.00 | 0.00 | 77 | 1009.7 |
| 20260902093533 | 56 | 182 | 0.0 | 0.0 | 0.00 | 0.00 | 0.00 | 76 | 1009.8 |
| 20260902093032 | 56 | 182 | 0.0 | 0.0 | 0.00 | 0.00 | 0.00 | 76 | 1009.6 |
| 20260902092533 | 57 | 182 | 0.0 | 0.0 | 0.00 | 0.00 | 0.00 | 76 | 1009.7 |
| 20260902091541 | 58 | 182 | 0.0 | 0.0 | 0.00 | 0.00 | 0.00 | 73 | 1009.6 |
| 20260902091031 | 58 | 182 | 0.0 | 0.0 | 0.00 | 0.00 | 0.00 | 74 | 1009.5 |
| 20260902090527 | 58 | 182 | 0.0 | 1.7 | 0.00 | 0.00 | 0.00 | 73 | 1009.5 |
| 20260902090026 | 59 | 182 | 0.0 | 2.6 | 0.00 | 0.00 | 0.00 | 72 | 1009.4 |
| 20260902085525 | 59 | 182 | 0.0 | 2.6 | 0.00 | 0.00 | 0.00 | 71 | 1009.4 |
| 20260902085025 | 60 | 182 | 0.0 | 2.6 | 0.00 | 0.00 | 0.00 | 71 | 1009.6 |
| 20260902084524 | 60 | 182 | 0.9 | 2.6 | 0.00 | 0.00 | 0.00 | 71 | 1009.8 |
| 20260902084024 | 60 | 182 | 0.9 | 5.2 | 0.00 | 0.00 | 0.00 | 71 | 1009.6 |
| 20260902083524 | 60 | 183 | 2.6 | 7.0 | 0.00 | 0.00 | 0.00 | 71 | 1009.6 |
| 20260902083022 | 60 | 180 | 2.6 | 7.0 | 0.00 | 0.00 | 0.00 | 72 | 1009.8 |
| 20260902082522 | 60 | 160 | 0.9 | 4.3 | 0.00 | 0.00 | 0.00 | 71 | 1009.7 |
| 20260902081523 | 60 | 165 | 0.0 | 0.0 | 0.00 | 0.00 | 0.00 | 72 | 1009.8 |
| 20260902081022 | 60 | 165 | 0.0 | 2.6 | 0.00 | 0.00 | 0.00 | 72 | 1009.6 |
| 20260902080522 | 59 | 165 | 0.0 | 4.3 | 0.00 | 0.00 | 0.00 | 73 | 1009.8 |
| 20260902080021 | 59 | 165 | 2.6 | 3.5 | 0.00 | 0.00 | 0.00 | 72 | 1009.7 |
| 20260902075523 | 59 | 175 | 0.0 | 0.0 | 0.00 | 0.00 | 0.00 | 73 | 1009.8 |
| 20260902075019 | 59 | 175 | 0.0 | 1.7 | 0.00 | 0.00 | 0.00 | 72 | 1010.0 |
| 20260902074519 | 59 | 175 | 0.0 | 3.5 | 0.00 | 0.00 | 0.00 | 72 | 1009.9 |
| 20260902074019 | 59 | 175 | 0.9 | 3.5 | 0.00 | 0.00 | 0.00 | 71 | 1009.8 |
| 20260902073520 | 60 | 175 | 1.7 | 3.5 | 0.00 | 0.00 | 0.00 | 70 | 1009.9 |
| 20260902073019 | 60 | 175 | 1.7 | 3.5 | 0.00 | 0.00 | 0.00 | 70 | 1009.9 |
| 20260902072515 | 60 | 175 | 0.0 | 3.5 | 0.00 | 0.00 | 0.00 | 70 | 1010.0 |
| 20260902071524 | 61 | 178 | 0.0 | 2.6 | 0.00 | 0.00 | 0.00 | 67 | 1009.9 |
| 20260902071014 | 61 | 178 | 0.9 | 2.6 | 0.00 | 0.00 | 0.00 | 67 | 1009.8 |
| 20260902070511 | 62 | 178 | 0.0 | 3.5 | 0.00 | 0.00 | 0.00 | 66 | 1010.1 |
| 20260902070016 | 62 | 178 | 0.0 | 3.5 | 0.00 | 0.00 | 0.00 | 66 | 1010.0 |
| 20260902065510 | 62 | 180 | 0.9 | 2.6 | 0.00 | 0.00 | 0.00 | 66 | 1010.1 |
| 20260902065011 | 62 | 180 | 0.9 | 3.5 | 0.00 | 0.00 | 0.00 | 65 | 1010.1 |
| 20260902064508 | 63 | 180 | 0.9 | 3.5 | 0.00 | 0.00 | 0.00 | 65 | 1010.1 |
| 20260902064007 | 63 | 180 | 0.9 | 4.3 | 0.00 | 0.00 | 0.00 | 64 | 1010.2 |
| 20260902063506 | 63 | 180 | 1.7 | 4.3 | 0.00 | 0.00 | 0.00 | 64 | 1010.3 |
| 20260902063009 | 63 | 139 | 0.0 | 1.7 | 0.00 | 0.00 | 0.00 | 63 | 1010.1 |
| 20260902062508 | 64 | 139 | 0.9 | 2.6 | 0.00 | 0.00 | 0.00 | 63 | 1009.9 |
| 20260902061506 | 64 | 132 | 1.7 | 3.5 | 0.00 | 0.00 | 0.00 | 62 | 1010.0 |
| 20260902061007 | 64 | 132 | 0.0 | 2.6 | 0.00 | 0.00 | 0.00 | 62 | 1010.1 |
| 20260902060507 | 64 | 132 | 0.0 | 0.0 | 0.00 | 0.00 | 0.00 | 62 | 1010.2 |
| 20260902060014 | 65 | 132 | 0.0 | 0.0 | 0.00 | 0.00 | 0.00 | 62 | 1010.2 |
| 20260902055509 | 65 | 132 | 0.0 | 0.0 | 0.00 | 0.00 | 0.00 | 61 | 1010.2 |
| 20260902055006 | 65 | 132 | 0.0 | 0.0 | 0.00 | 0.00 | 0.00 | 61 | 1010.2 |
| 20260902054511 | 66 | 132 | 0.0 | 0.0 | 0.00 | 0.00 | 0.00 | 61 | 1010.2 |
| 20260902054006 | 66 | 132 | 0.0 | 0.9 | 0.00 | 0.00 | 0.00 | 60 | 1010.1 |
| 20260902053505 | 66 | 132 | 0.0 | 1.7 | 0.00 | 0.00 | 0.00 | 60 | 1010.2 |
| 20260902053010 | 67 | 132 | 0.0 | 1.7 | 0.00 | 0.00 | 0.00 | 59 | 1010.2 |
| 20260902052505 | 67 | 132 | 0.9 | 3.5 | 0.00 | 0.00 | 0.00 | 59 | 1010.0 |
| 20260902051505 | 68 | 134 | 1.7 | 6.1 | 0.00 | 0.00 | 0.00 | 58 | 1010.2 |
| 20260902051005 | 68 | 124 | 0.9 | 6.1 | 0.00 | 0.00 | 0.00 | 58 | 1010.1 |
| 20260902050508 | 68 | 125 | 3.5 | 6.1 | 0.00 | 0.00 | 0.00 | 59 | 1010.1 |
| 20260902050009 | 67 | 123 | 3.5 | 6.1 | 0.00 | 0.00 | 0.00 | 59 | 1010.1 |
| 20260902045505 | 68 | 133 | 0.9 | 3.5 | 0.00 | 0.00 | 0.00 | 58 | 1010.0 |
| 20260902045004 | 69 | 134 | 0.9 | 3.5 | 0.00 | 0.00 | 0.00 | 57 | 1010.2 |
| 20260902044506 | 69 | 132 | 1.7 | 4.3 | 0.00 | 0.00 | 0.00 | 56 | 1010.1 |
| 20260902044005 | 69 | 140 | 2.6 | 4.3 | 0.00 | 0.00 | 0.00 | 56 | 1010.1 |
| 20260902043504 | 70 | 148 | 1.7 | 5.2 | 0.00 | 0.00 | 0.00 | 55 | 1010.2 |
| 20260902043004 | 70 | 145 | 0.9 | 6.1 | 0.00 | 0.00 | 0.00 | 55 | 1010.2 |
| 20260902042504 | 70 | 219 | 1.7 | 7.8 | 0.00 | 0.00 | 0.00 | 55 | 1010.3 |
| 20260902041506 | 70 | 152 | 0.9 | 4.3 | 0.00 | 0.00 | 0.00 | 54 | 1010.2 |
| 20260902041002 | 71 | 152 | 1.7 | 4.3 | 0.00 | 0.00 | 0.00 | 53 | 1010.1 |
| 20260902040506 | 71 | 169 | 2.6 | 4.3 | 0.00 | 0.00 | 0.00 | 53 | 1010.2 |
| 20260902040002 | 71 | 143 | 2.6 | 6.1 | 0.00 | 0.00 | 0.00 | 53 | 1010.1 |
| 20260902035502 | 71 | 138 | 3.5 | 7.0 | 0.00 | 0.00 | 0.00 | 52 | 1010.0 |
| 20260902035002 | 72 | 134 | 3.5 | 7.0 | 0.00 | 0.00 | 0.00 | 52 | 1010.0 |
| 20260902034503 | 72 | 126 | 3.5 | 7.0 | 0.00 | 0.00 | 0.00 | 52 | 1010.1 |
| 20260902034004 | 72 | 139 | 3.5 | 7.0 | 0.00 | 0.00 | 0.00 | 51 | 1010.1 |
| 20260902033502 | 72 | 142 | 2.6 | 6.1 | 0.00 | 0.00 | 0.00 | 51 | 1010.0 |
| 20260902033002 | 72 | 134 | 3.5 | 6.1 | 0.00 | 0.00 | 0.00 | 51 | 1010.0 |
| 20260902032503 | 72 | 130 | 3.5 | 7.0 | 0.00 | 0.00 | 0.00 | 50 | 1009.9 |
| 20260902031502 | 72 | 126 | 3.5 | 8.7 | 0.00 | 0.00 | 0.00 | 50 | 1009.9 |
| 20260902031002 | 72 | 140 | 5.2 | 8.7 | 0.00 | 0.00 | 0.00 | 51 | 1009.8 |
| 20260902030502 | 72 | 129 | 0.9 | 4.3 | 0.00 | 0.00 | 0.00 | 51 | 1009.8 |
| 20260902030002 | 72 | 130 | 1.7 | 4.3 | 0.00 | 0.00 | 0.00 | 51 | 1009.7 |
| 20260902025601 | 73 | 154 | 1.7 | 4.3 | 0.00 | 0.00 | 0.00 | 50 | 1009.8 |
| 20260902025100 | 73 | 154 | 1.7 | 4.3 | 0.00 | 0.00 | 0.00 | 49 | 1009.6 |
| 20260902024601 | 73 | 154 | 1.7 | 4.3 | 0.00 | 0.00 | 0.00 | 48 | 1009.6 |
| 20260902024100 | 74 | 154 | 1.7 | 4.3 | 0.00 | 0.00 | 0.00 | 48 | 1009.4 |
| 20260902023600 | 74 | 153 | 0.0 | 4.3 | 0.00 | 0.00 | 0.00 | 47 | 1009.6 |
| 20260902023113 | 74 | 182 | 0.9 | 6.1 | 0.00 | 0.00 | 0.00 | 47 | 1009.4 |
| 20260902022600 | 75 | 150 | 2.6 | 7.0 | 0.00 | 0.00 | 0.00 | 47 | 1009.4 |
| 20260902021501 | 75 | 170 | 3.5 | 7.8 | 0.00 | 0.00 | 0.00 | 46 | 1009.5 |
| 20260902021001 | 75 | 150 | 1.7 | 6.1 | 0.00 | 0.00 | 0.00 | 46 | 1009.3 |
| 20260902020501 | 76 | 134 | 2.6 | 7.8 | 0.00 | 0.00 | 0.00 | 45 | 1009.3 |
| 20260902020001 | 76 | 150 | 3.5 | 8.7 | 0.00 | 0.00 | 0.00 | 45 | 1009.2 |
| 20260902015502 | 76 | 140 | 4.3 | 9.6 | 0.00 | 0.00 | 0.00 | 44 | 1009.3 |
| 20260902015002 | 77 | 134 | 5.2 | 9.6 | 0.00 | 0.00 | 0.00 | 44 | 1009.2 |
| 20260902014501 | 77 | 137 | 7.0 | 9.6 | 0.00 | 0.00 | 0.00 | 44 | 1009.2 |
| 20260902013604 | 77 | 131 | 6.1 | 9.6 | 0.00 | 0.00 | 0.00 | 43 | 1009.0 |
| 20260902013100 | 77 | 130 | 6.1 | 9.6 | 0.00 | 0.00 | 0.00 | 43 | 1009.2 |
| 20260902012559 | 78 | 142 | 6.1 | 9.6 | 0.00 | 0.00 | 0.00 | 43 | 1009.1 |
| 20260902011600 | 78 | 140 | 5.2 | 11.3 | 0.00 | 0.00 | 0.00 | 43 | 1009.1 |
| 20260902011101 | 78 | 140 | 5.2 | 9.6 | 0.00 | 0.00 | 0.00 | 42 | 1009.1 |
| 20260902010601 | 79 | 148 | 6.1 | 13.0 | 0.00 | 0.00 | 0.00 | 42 | 1009.1 |
| 20260902005601 | 79 | 146 | 8.7 | 13.0 | 0.00 | 0.00 | 0.00 | 41 | 1009.1 |
| 20260902005105 | 80 | 114 | 8.7 | 13.0 | 0.00 | 0.00 | 0.00 | 41 | 1009.2 |
| 20260902004600 | 80 | 134 | 7.0 | 13.0 | 0.00 | 0.00 | 0.00 | 41 | 1009.0 |
| 20260902004100 | 80 | 151 | 8.7 | 13.9 | 0.00 | 0.00 | 0.00 | 41 | 1008.9 |
| 20260902003559 | 80 | 145 | 9.6 | 15.6 | 0.00 | 0.00 | 0.00 | 41 | 1009.1 |
| 20260902003059 | 80 | 132 | 9.6 | 15.6 | 0.00 | 0.00 | 0.00 | 41 | 1008.9 |
| 20260902002558 | 80 | 122 | 8.7 | 15.6 | 0.00 | 0.00 | 0.00 | 40 | 1009.1 |
| 20260902001557 | 81 | 138 | 9.6 | 14.8 | 0.00 | 0.00 | 0.00 | 41 | 1009.1 |
| 20260902001057 | 81 | 140 | 9.6 | 14.8 | 0.00 | 0.00 | 0.00 | 40 | 1009.0 |
| 20260902000556 | 81 | 128 | 7.8 | 14.8 | 0.00 | 0.00 | 0.00 | 40 | 1009.1 |
| 20260902000059 | 81 | 140 | 8.7 | 14.8 | 0.00 | 0.00 | 0.00 | 40 | 1009.0 |
| 20260901235556 | 82 | 156 | 10.4 | 15.6 | 0.00 | 0.00 | 0.00 | 40 | 1009.2 |
| 20260901235056 | 82 | 142 | 11.3 | 15.6 | 0.00 | 0.00 | 0.00 | 38 | 1009.0 |
| 20260901234612 | 82 | 135 | 8.7 | 14.8 | 0.00 | 0.00 | 0.00 | 38 | 1009.1 |
| 20260901234056 | 82 | 141 | 10.4 | 14.8 | 0.00 | 0.00 | 0.00 | 38 | 1009.1 |
| 20260901233555 | 82 | 168 | 10.4 | 13.9 | 0.00 | 0.00 | 0.00 | 38 | 1009.2 |
| 20260901233058 | 82 | 138 | 9.6 | 13.9 | 0.00 | 0.00 | 0.00 | 38 | 1009.1 |
| 20260901232554 | 83 | 168 | 8.7 | 13.9 | 0.00 | 0.00 | 0.00 | 37 | 1009.1 |
| 20260901231553 | 83 | 148 | 7.8 | 12.2 | 0.00 | 0.00 | 0.00 | 35 | 1009.3 |
| 20260901231053 | 83 | 128 | 8.7 | 11.3 | 0.00 | 0.00 | 0.00 | 34 | 1009.3 |
| 20260901230553 | 83 | 122 | 5.2 | 11.3 | 0.00 | 0.00 | 0.00 | 34 | 1009.3 |
| 20260901230134 | 83 | 138 | 7.0 | 11.3 | 0.00 | 0.00 | 0.00 | 33 | 1009.3 |
| 20260901225553 | 83 | 124 | 7.8 | 13.0 | 0.00 | 0.00 | 0.00 | 33 | 1009.5 |
| 20260901225050 | 83 | 123 | 5.2 | 11.3 | 0.00 | 0.00 | 0.00 | 33 | 1009.4 |
| 20260901224549 | 83 | 98 | 6.1 | 11.3 | 0.00 | 0.00 | 0.00 | 32 | 1009.6 |
| 20260901224047 | 83 | 134 | 7.8 | 13.9 | 0.00 | 0.00 | 0.00 | 32 | 1009.6 |
| 20260901223548 | 84 | 128 | 8.7 | 13.9 | 0.00 | 0.00 | 0.00 | 32 | 1009.7 |
| 20260901223105 | 84 | 138 | 8.7 | 13.9 | 0.00 | 0.00 | 0.00 | 32 | 1009.9 |
| 20260901222546 | 84 | 162 | 7.0 | 12.2 | 0.00 | 0.00 | 0.00 | 32 | 1009.6 |
| 20260901221542 | 83 | 128 | 6.1 | 13.0 | 0.00 | 0.00 | 0.00 | 31 | 1009.8 |
| 20260901221042 | 83 | 132 | 8.7 | 13.0 | 0.00 | 0.00 | 0.00 | 31 | 1010.0 |
| 20260901220543 | 83 | 132 | 9.6 | 12.2 | 0.00 | 0.00 | 0.00 | 31 | 1009.9 |
| 20260901220051 | 83 | 102 | 6.1 | 10.4 | 0.00 | 0.00 | 0.00 | 33 | 1010.0 |
| 20260901215542 | 83 | 103 | 4.3 | 9.6 | 0.00 | 0.00 | 0.00 | 33 | 1010.1 |
| 20260901215041 | 83 | 101 | 5.2 | 9.6 | 0.00 | 0.00 | 0.00 | 34 | 1010.2 |
| 20260901214539 | 82 | 89 | 3.5 | 8.7 | 0.00 | 0.00 | 0.00 | 33 | 1010.2 |
| 20260901214039 | 82 | 118 | 2.6 | 11.3 | 0.00 | 0.00 | 0.00 | 33 | 1010.2 |
| 20260901213539 | 83 | 111 | 7.0 | 11.3 | 0.00 | 0.00 | 0.00 | 32 | 1010.3 |
| 20260901213045 | 83 | 105 | 4.3 | 10.4 | 0.00 | 0.00 | 0.00 | 32 | 1010.2 |
| 20260901212539 | 82 | 102 | 4.3 | 12.2 | 0.00 | 0.00 | 0.00 | 32 | 1010.3 |
| 20260901212039 | 83 | 136 | 7.0 | 12.2 | 0.00 | 0.00 | 0.00 | 31 | 1010.3 |
| 20260901211548 | 83 | 101 | 6.1 | 11.3 | 0.00 | 0.00 | 0.00 | 31 | 1010.4 |
| 20260901211039 | 83 | 110 | 7.0 | 12.2 | 0.00 | 0.00 | 0.00 | 32 | 1010.5 |
| 20260901210537 | 83 | 127 | 7.8 | 14.8 | 0.00 | 0.00 | 0.00 | 31 | 1010.6 |
| 20260901210038 | 83 | 130 | 7.8 | 14.8 | 0.00 | 0.00 | 0.00 | 30 | 1010.5 |
| 20260901205536 | 83 | 127 | 5.2 | 13.0 | 0.00 | 0.00 | 0.00 | 31 | 1010.5 |
| 20260901204543 | 83 | 140 | 10.4 | 14.8 | 0.00 | 0.00 | 0.00 | 31 | 1010.6 |
| 20260901204035 | 82 | 148 | 7.8 | 14.8 | 0.00 | 0.00 | 0.00 | 30 | 1010.8 |
| 20260901203535 | 82 | 126 | 7.0 | 16.5 | 0.00 | 0.00 | 0.00 | 31 | 1010.7 |
| 20260901203032 | 82 | 140 | 10.4 | 16.5 | 0.00 | 0.00 | 0.00 | 31 | 1010.8 |
| 20260901202531 | 81 | 137 | 6.1 | 12.2 | 0.00 | 0.00 | 0.00 | 31 | 1010.9 |
| 20260901202031 | 81 | 123 | 7.8 | 13.9 | 0.00 | 0.00 | 0.00 | 31 | 1011.0 |
| 20260901201531 | 81 | 101 | 4.3 | 8.7 | 0.00 | 0.00 | 0.00 | 31 | 1010.9 |
| 20260901201030 | 81 | 98 | 5.2 | 10.4 | 0.00 | 0.00 | 0.00 | 33 | 1011.0 |
| 20260901200531 | 81 | 100 | 5.2 | 12.2 | 0.00 | 0.00 | 0.00 | 33 | 1011.2 |
| 20260901200043 | 81 | 101 | 5.2 | 12.2 | 0.00 | 0.00 | 0.00 | 33 | 1011.3 |
| 20260901195528 | 81 | 133 | 5.2 | 12.2 | 0.00 | 0.00 | 0.00 | 33 | 1011.5 |
| 20260901194540 | 81 | 132 | 3.5 | 12.2 | 0.00 | 0.00 | 0.00 | 33 | 1011.4 |
| 20260901194030 | 81 | 131 | 9.6 | 12.2 | 0.00 | 0.00 | 0.00 | 32 | 1011.7 |
| 20260901193530 | 81 | 137 | 7.0 | 12.2 | 0.00 | 0.00 | 0.00 | 33 | 1011.7 |
| 20260901193029 | 80 | 115 | 5.2 | 12.2 | 0.00 | 0.00 | 0.00 | 33 | 1011.7 |
| 20260901192529 | 81 | 134 | 7.8 | 12.2 | 0.00 | 0.00 | 0.00 | 33 | 1011.8 |
| 20260901192028 | 80 | 111 | 3.5 | 8.7 | 0.00 | 0.00 | 0.00 | 34 | 1011.8 |
| 20260901191531 | 80 | 95 | 2.6 | 10.4 | 0.00 | 0.00 | 0.00 | 34 | 1011.9 |
| 20260901191027 | 80 | 133 | 7.0 | 10.4 | 0.00 | 0.00 | 0.00 | 33 | 1012.0 |
| 20260901190526 | 80 | 96 | 6.1 | 10.4 | 0.00 | 0.00 | 0.00 | 34 | 1012.0 |
| 20260901190030 | 80 | 99 | 5.2 | 9.6 | 0.00 | 0.00 | 0.00 | 35 | 1012.2 |
| 20260901185525 | 80 | 126 | 5.2 | 10.4 | 0.00 | 0.00 | 0.00 | 35 | 1012.3 |
| 20260901184522 | 80 | 104 | 3.5 | 8.7 | 0.00 | 0.00 | 0.00 | 35 | 1012.4 |
| 20260901184019 | 80 | 142 | 4.3 | 10.4 | 0.00 | 0.00 | 0.00 | 35 | 1012.2 |
| 20260901183518 | 80 | 119 | 5.2 | 11.3 | 0.00 | 0.00 | 0.00 | 35 | 1012.4 |
| 20260901183034 | 80 | 101 | 6.1 | 11.3 | 0.00 | 0.00 | 0.00 | 35 | 1012.5 |
| 20260901182515 | 79 | 90 | 2.6 | 8.7 | 0.00 | 0.00 | 0.00 | 36 | 1012.5 |
| 20260901182015 | 79 | 123 | 5.2 | 9.6 | 0.00 | 0.00 | 0.00 | 35 | 1012.5 |
| 20260901181514 | 79 | 99 | 5.2 | 9.6 | 0.00 | 0.00 | 0.00 | 36 | 1012.8 |
| 20260901181013 | 79 | 101 | 5.2 | 9.6 | 0.00 | 0.00 | 0.00 | 37 | 1012.8 |
| 20260901180512 | 78 | 113 | 4.3 | 9.6 | 0.00 | 0.00 | 0.00 | 38 | 1012.8 |
| 20260901180010 | 78 | 106 | 5.2 | 7.8 | 0.00 | 0.00 | 0.00 | 37 | 1012.8 |
| 20260901175512 | 77 | 123 | 5.2 | 10.4 | 0.00 | 0.00 | 0.00 | 38 | 1013.0 |
| 20260901174511 | 77 | 140 | 4.3 | 9.6 | 0.00 | 0.00 | 0.00 | 39 | 1013.1 |
| 20260901174016 | 76 | 112 | 4.3 | 9.6 | 0.00 | 0.00 | 0.00 | 39 | 1013.0 |
| 20260901173510 | 76 | 132 | 5.2 | 10.4 | 0.00 | 0.00 | 0.00 | 39 | 1013.1 |
| 20260901173009 | 76 | 128 | 6.1 | 10.4 | 0.00 | 0.00 | 0.00 | 40 | 1013.1 |
| 20260901172513 | 75 | 142 | 4.3 | 9.6 | 0.00 | 0.00 | 0.00 | 41 | 1013.2 |
| 20260901172008 | 76 | 142 | 7.8 | 10.4 | 0.00 | 0.00 | 0.00 | 41 | 1013.1 |
| 20260901171507 | 75 | 201 | 7.0 | 10.4 | 0.00 | 0.00 | 0.00 | 42 | 1013.3 |
| 20260901171007 | 75 | 144 | 5.2 | 8.7 | 0.00 | 0.00 | 0.00 | 43 | 1013.3 |
| 20260901170506 | 75 | 129 | 5.2 | 8.7 | 0.00 | 0.00 | 0.00 | 43 | 1013.3 |
| 20260901170006 | 75 | 136 | 5.2 | 8.7 | 0.00 | 0.00 | 0.00 | 43 | 1013.3 |
| 20260901165508 | 75 | 132 | 5.2 | 8.7 | 0.00 | 0.00 | 0.00 | 44 | 1013.2 |
| 20260901164509 | 74 | 128 | 4.3 | 7.8 | 0.00 | 0.00 | 0.00 | 45 | 1013.3 |
| 20260901164008 | 74 | 111 | 3.5 | 7.0 | 0.00 | 0.00 | 0.00 | 44 | 1013.3 |
| 20260901163506 | 73 | 113 | 3.5 | 6.1 | 0.00 | 0.00 | 0.00 | 45 | 1013.4 |
| 20260901163005 | 72 | 120 | 3.5 | 6.1 | 0.00 | 0.00 | 0.00 | 46 | 1013.3 |
| 20260901162504 | 72 | 91 | 2.6 | 5.2 | 0.00 | 0.00 | 0.00 | 47 | 1013.2 |
| 20260901162001 | 71 | 39 | 0.9 | 5.2 | 0.00 | 0.00 | 0.00 | 49 | 1013.2 |
| 20260901161607 | 70 | 36 | 0.9 | 5.2 | 0.00 | 0.00 | 0.00 | 49 | 1013.1 |
| 20260901161100 | 70 | 32 | 1.7 | 4.3 | 0.00 | 0.00 | 0.00 | 50 | 1013.1 |
| 20260901160558 | 69 | 36 | 0.9 | 5.2 | 0.00 | 0.00 | 0.00 | 49 | 1013.1 |
| 20260901160100 | 69 | 35 | 2.6 | 5.2 | 0.00 | 0.00 | 0.00 | 51 | 1013.1 |
| 20260901155556 | 68 | 26 | 0.0 | 3.5 | 0.00 | 0.00 | 0.00 | 52 | 1013.3 |
| 20260901155156 | 67 | 26 | 1.7 | 3.5 | 0.00 | 0.00 | 0.00 | 52 | 1013.2 |
| 20260901154555 | 67 | 26 | 0.9 | 3.5 | 0.00 | 0.00 | 0.00 | 53 | 1013.2 |
| 20260901154054 | 67 | 25 | 0.9 | 2.6 | 0.00 | 0.00 | 0.00 | 53 | 1013.4 |
| 20260901153553 | 66 | 25 | 0.0 | 3.5 | 0.00 | 0.00 | 0.00 | 54 | 1013.4 |
| 20260901153053 | 66 | 24 | 1.7 | 4.3 | 0.00 | 0.00 | 0.00 | 54 | 1013.3 |
| 20260901152552 | 66 | 21 | 0.9 | 2.6 | 0.00 | 0.00 | 0.00 | 54 | 1013.4 |
| 20260901152051 | 66 | 20 | 0.9 | 3.5 | 0.00 | 0.00 | 0.00 | 55 | 1013.3 |
| 20260901151553 | 65 | 20 | 0.0 | 3.5 | 0.00 | 0.00 | 0.00 | 55 | 1013.3 |
| 20260901151050 | 65 | 19 | 0.0 | 2.6 | 0.00 | 0.00 | 0.00 | 55 | 1013.4 |
| 20260901150548 | 64 | 18 | 0.9 | 2.6 | 0.00 | 0.00 | 0.00 | 55 | 1013.4 |
| 20260901150048 | 64 | 16 | 0.9 | 3.5 | 0.00 | 0.00 | 0.00 | 57 | 1013.5 |
| 20260901145548 | 63 | 16 | 1.7 | 3.5 | 0.00 | 0.00 | 0.00 | 56 | 1013.5 |
| 20260901144541 | 62 | 333 | 1.7 | 3.5 | 0.00 | 0.00 | 0.00 | 58 | 1013.4 |
| 20260901144040 | 62 | 325 | 2.6 | 3.5 | 0.00 | 0.00 | 0.00 | 58 | 1013.5 |
| 20260901143539 | 62 | 233 | 0.9 | 2.6 | 0.00 | 0.00 | 0.00 | 58 | 1013.7 |
| 20260901143043 | 61 | 233 | 0.0 | 2.6 | 0.00 | 0.00 | 0.00 | 59 | 1013.7 |
| 20260901142537 | 61 | 233 | 0.9 | 3.5 | 0.00 | 0.00 | 0.00 | 60 | 1013.9 |
| 20260901142034 | 60 | 233 | 0.9 | 3.5 | 0.00 | 0.00 | 0.00 | 61 | 1013.9 |
| 20260901141540 | 59 | 235 | 1.7 | 3.5 | 0.00 | 0.00 | 0.00 | 62 | 1013.9 |
| 20260901141034 | 58 | 238 | 0.9 | 2.6 | 0.00 | 0.00 | 0.00 | 64 | 1013.7 |
| 20260901140533 | 57 | 238 | 0.0 | 2.6 | 0.00 | 0.00 | 0.00 | 67 | 1013.7 |
| 20260901140034 | 55 | 238 | 0.0 | 1.7 | 0.00 | 0.00 | 0.00 | 70 | 1013.6 |
| 20260901135529 | 54 | 238 | 0.0 | 1.7 | 0.00 | 0.00 | 0.00 | 73 | 1013.8 |
| 20260901134528 | 51 | 238 | 0.9 | 2.6 | 0.00 | 0.00 | 0.00 | 75 | 1013.7 |
| 20260901134026 | 51 | 238 | 0.9 | 2.6 | 0.00 | 0.00 | 0.00 | 76 | 1013.8 |
| 20260901133526 | 50 | 238 | 0.0 | 0.0 | 0.00 | 0.00 | 0.00 | 77 | 1013.8 |
| 20260901133037 | 50 | 238 | 0.0 | 0.0 | 0.00 | 0.00 | 0.00 | 78 | 1013.9 |
| 20260901132532 | 49 | 238 | 0.0 | 0.0 | 0.00 | 0.00 | 0.00 | 78 | 1013.9 |
| 20260901132026 | 49 | 238 | 0.0 | 0.0 | 0.00 | 0.00 | 0.00 | 79 | 1013.9 |
| 20260901131529 | 48 | 238 | 0.0 | 0.0 | 0.00 | 0.00 | 0.00 | 80 | 1013.9 |
| 20260901131029 | 47 | 238 | 0.0 | 0.0 | 0.00 | 0.00 | 0.00 | 79 | 1013.9 |
| 20260901130524 | 47 | 238 | 0.0 | 0.0 | 0.00 | 0.00 | 0.00 | 80 | 1013.9 |
| 20260901130024 | 47 | 238 | 0.0 | 0.0 | 0.00 | 0.00 | 0.00 | 80 | 1013.9 |
| 20260901125524 | 47 | 238 | 0.0 | 0.0 | 0.00 | 0.00 | 0.00 | 80 | 1014.0 |
| 20260901124525 | 46 | 238 | 0.0 | 0.0 | 0.00 | 0.00 | 0.00 | 78 | 1013.8 |
| 20260901124023 | 46 | 238 | 0.0 | 0.0 | 0.00 | 0.00 | 0.00 | 77 | 1013.8 |
| 20260901123522 | 47 | 238 | 0.0 | 0.0 | 0.00 | 0.00 | 0.00 | 75 | 1013.8 |
| 20260901123022 | 47 | 238 | 0.0 | 0.0 | 0.00 | 0.00 | 0.00 | 77 | 1013.6 |
| 20260901122522 | 47 | 238 | 0.0 | 0.0 | 0.00 | 0.00 | 0.00 | 77 | 1013.6 |
| 20260901122021 | 47 | 238 | 0.0 | 0.0 | 0.00 | 0.00 | 0.00 | 78 | 1013.4 |
| 20260901121521 | 47 | 238 | 0.0 | 0.0 | 0.00 | 0.00 | 0.00 | 78 | 1013.4 |
| 20260901121021 | 47 | 238 | 0.0 | 0.0 | 0.00 | 0.00 | 0.00 | 77 | 1013.5 |